{"data":{"norad_id":54793,"epoch":"2026-09-19T14:38:53.393280Z","epoch_age_seconds":169976,"freshness":"FRESH","line1":"1 54793U 22175AM  26262.61034020  .00015573  00000+0  45637-3 0  9997","line2":"2 54793  53.1603 221.7559 0001079  91.4720 268.6406 15.35404105 11517","mean_motion":15.35404105,"eccentricity":0.0001079,"inclination_deg":53.1603,"raan_deg":221.7559,"arg_perigee_deg":91.472,"mean_anomaly_deg":268.6406,"bstar":0.00045637,"rev_number":1151,"period_min":93.786384659952,"perigee_km":458.9826502649,"apogee_km":460.45825990371,"semimajor_km":6837.8574550843,"source":"CELESTRAK","updated_at":"2026-09-21T09:00:33.127345Z"}}